• en France
  • Liste des pays
  • À 7 jours
  • Température de l'eau
  • Carte satellitaire
  • Carte météo
  • Widgets météo
  • user-avatar
    Se connecter

    Météo par heure à Woznice

    Ce jour, 15 Octobre, Lundi

    Heure Température Précipitation Vent Pression Humidité
    00:00 +11°C° 0 mm 4 m/s 756 mmHg 58%
    01:00 +10°C° 0 mm 4 m/s 756 mmHg 60%
    02:00 +10°C° 0 mm 4 m/s 756 mmHg 62%
    03:00 +9°C° 0 mm 3 m/s 756 mmHg 64%
    04:00 +9°C° 0 mm 3 m/s 756 mmHg 65%
    05:00 +9°C° 0 mm 3 m/s 756 mmHg 66%
    06:00 +9°C° 0 mm 3 m/s 756 mmHg 66%
    07:00 +9°C° 0 mm 3 m/s 756 mmHg 66%
    08:00 +11°C° 0 mm 3 m/s 756 mmHg 61%
    09:00 +13°C° 0 mm 4 m/s 756 mmHg 56%
    10:00 +15°C° 0 mm 4 m/s 756 mmHg 50%
    11:00 +17°C° 0 mm 4 m/s 756 mmHg 47%
    12:00 +18°C° 0 mm 4 m/s 756 mmHg 44%
    13:00 +20°C° 0 mm 4 m/s 756 mmHg 41%
    14:00 +19°C° 0 mm 4 m/s 756 mmHg 45%
    15:00 +18°C° 0 mm 3 m/s 755 mmHg 48%
    16:00 +17°C° 0 mm 3 m/s 755 mmHg 52%
    17:00 +16°C° 0 mm 3 m/s 755 mmHg 55%
    18:00 +13°C° 0 mm 3 m/s 755 mmHg 58%
    19:00 +12°C° 0 mm 3 m/s 755 mmHg 60%
    20:00 +12°C° 0 mm 3 m/s 755 mmHg 61%
    21:00 +11°C° 0 mm 3 m/s 755 mmHg 63%
    22:00 +11°C° 0 mm 3 m/s 755 mmHg 64%
    23:00 +10°C° 0 mm 3 m/s 755 mmHg 65%

    Demain, 16 Octobre, Mardi

    Heure Température Précipitation Vent Pression Humidité
    00:00 +10°C° 0 mm 3 m/s 755 mmHg 66%
    01:00 +9°C° 0 mm 3 m/s 755 mmHg 67%
    02:00 +9°C° 0 mm 3 m/s 755 mmHg 68%
    03:00 +9°C° 0 mm 3 m/s 755 mmHg 70%
    04:00 +9°C° 0 mm 3 m/s 755 mmHg 71%
    05:00 +9°C° 0 mm 3 m/s 755 mmHg 72%
    06:00 +9°C° 0 mm 3 m/s 755 mmHg 72%
    07:00 +9°C° 0 mm 3 m/s 755 mmHg 72%
    08:00 +11°C° 0 mm 3 m/s 755 mmHg 66%
    09:00 +13°C° 0 mm 3 m/s 755 mmHg 60%
    10:00 +16°C° 0 mm 3 m/s 755 mmHg 53%
    11:00 +17°C° 0 mm 3 m/s 755 mmHg 50%
    12:00 +18°C° 0 mm 3 m/s 755 mmHg 46%
    13:00 +19°C° 0 mm 3 m/s 755 mmHg 43%
    14:00 +18°C° 0 mm 2 m/s 755 mmHg 46%
    15:00 +17°C° 0 mm 2 m/s 755 mmHg 50%
    16:00 +16°C° 0 mm 2 m/s 755 mmHg 54%
    17:00 +15°C° 0 mm 2 m/s 755 mmHg 56%
    18:00 +14°C° 0 mm 2 m/s 755 mmHg 58%
    19:00 +13°C° 0 mm 2 m/s 755 mmHg 61%
    20:00 +12°C° 0 mm 2 m/s 755 mmHg 62%
    21:00 +12°C° 0 mm 2 m/s 755 mmHg 63%
    22:00 +12°C° 0 mm 2 m/s 755 mmHg 63%
    23:00 +10°C° 0 mm 2 m/s 755 mmHg 64%

    Après-demain, 17 Octobre, Mercredi

    Heure Température Précipitation Vent Pression Humidité
    00:00 +10°C° 0 mm 2 m/s 755 mmHg 64%
    01:00 +11°C° 0 mm 1 m/s 756 mmHg 65%
    02:00 +10°C° 0 mm 1 m/s 756 mmHg 65%
    03:00 +10°C° 0 mm 1 m/s 755 mmHg 66%
    04:00 +10°C° 0 mm 1 m/s 755 mmHg 66%
    05:00 +10°C° 0 mm 1 m/s 756 mmHg 66%
    06:00 +10°C° 0 mm 1 m/s 756 mmHg 66%
    07:00 +9°C° 0 mm 2 m/s 756 mmHg 66%
    08:00 +12°C° 0 mm 2 m/s 756 mmHg 60%
    09:00 +15°C° 0 mm 2 m/s 756 mmHg 53%
    10:00 +17°C° 0 mm 2 m/s 756 mmHg 47%
    11:00 +18°C° 0 mm 2 m/s 756 mmHg 44%
    12:00 +19°C° 0 mm 2 m/s 756 mmHg 42%
    13:00 +21°C° 0 mm 1 m/s 756 mmHg 39%
    14:00 +20°C° 0 mm 1 m/s 756 mmHg 43%
    15:00 +19°C° 0 mm 1 m/s 755 mmHg 47%
    16:00 +16°C° 0 mm 1 m/s 755 mmHg 52%
    17:00 +15°C° 0 mm 2 m/s 755 mmHg 55%
    18:00 +14°C° 0 mm 2 m/s 755 mmHg 58%
    19:00 +13°C° 0 mm 2 m/s 756 mmHg 62%
    20:00 +13°C° 0 mm 2 m/s 755 mmHg 64%
    21:00 +12°C° 0 mm 2 m/s 755 mmHg 66%
    22:00 +12°C° 0 mm 2 m/s 755 mmHg 68%
    23:00 +10°C° 0 mm 2 m/s 755 mmHg 70%

    18 Octobre, Jeudi

    Heure Température Précipitation Vent Pression Humidité
    00:00 +10°C° 0 mm 2 m/s 755 mmHg 73%
    01:00 +10°C° 0 mm 2 m/s 755 mmHg 76%
    02:00 +9°C° 0 mm 2 m/s 755 mmHg 79%
    03:00 +9°C° 0 mm 2 m/s 755 mmHg 82%
    04:00 +9°C° 0 mm 2 m/s 754 mmHg 85%
    05:00 +10°C° 0 mm 1 m/s 754 mmHg 86%
    06:00 +10°C° 0 mm 1 m/s 754 mmHg 88%
    07:00 +10°C° 0 mm 1 m/s 754 mmHg 89%
    08:00 +12°C° 0 mm 1 m/s 754 mmHg 82%
    09:00 +14°C° 0 mm 1 m/s 754 mmHg 74%
    10:00 +16°C° 0 mm 1 m/s 754 mmHg 67%
    11:00 +18°C° 0 mm 1 m/s 754 mmHg 62%
    12:00 +19°C° 0 mm 1 m/s 754 mmHg 58%
    13:00 +20°C° 0 mm 1 m/s 753 mmHg 53%
    14:00 +19°C° 0 mm 1 m/s 753 mmHg 57%
    15:00 +18°C° 0 mm 1 m/s 753 mmHg 61%
    16:00 +15°C° 0 mm 0 m/s 753 mmHg 64%
    17:00 +15°C° 0 mm 1 m/s 753 mmHg 68%
    18:00 +14°C° 0 mm 1 m/s 753 mmHg 72%
    19:00 +13°C° 0 mm 1 m/s 753 mmHg 75%
    20:00 +13°C° 0 mm 1 m/s 753 mmHg 78%
    21:00 +12°C° 0 mm 1 m/s 753 mmHg 80%
    22:00 +12°C° 0 mm 1 m/s 753 mmHg 82%
    23:00 +11°C° 0 mm 1 m/s 753 mmHg 83%

    19 Octobre, Vendredi

    Heure Température Précipitation Vent Pression Humidité
    00:00 +11°C° 0 mm 1 m/s 753 mmHg 84%
    01:00 +11°C° 0 mm 1 m/s 753 mmHg 85%
    02:00 +10°C° 0 mm 1 m/s 753 mmHg 86%
    03:00 +10°C° 0 mm 1 m/s 753 mmHg 87%
    04:00 +9°C° 0 mm 2 m/s 753 mmHg 88%
    05:00 +8°C° 0 mm 2 m/s 753 mmHg 87%
    06:00 +9°C° 0 mm 1 m/s 753 mmHg 87%
    07:00 +9°C° 0 mm 1 m/s 753 mmHg 87%
    08:00 +11°C° 0 mm 1 m/s 754 mmHg 80%
    09:00 +13°C° 0 mm 2 m/s 754 mmHg 74%
    10:00 +14°C° 0 mm 2 m/s 754 mmHg 67%
    11:00 +15°C° 0 mm 2 m/s 754 mmHg 65%
    12:00 +16°C° 0 mm 2 m/s 754 mmHg 63%
    13:00 +17°C° 0 mm 3 m/s 754 mmHg 61%
    14:00 +16°C° 0 mm 2 m/s 754 mmHg 66%
    15:00 +15°C° 0 mm 2 m/s 754 mmHg 71%
    16:00 +14°C° 0 mm 2 m/s 754 mmHg 76%
    17:00 +13°C° 0 mm 2 m/s 754 mmHg 80%
    18:00 +13°C° 0 mm 2 m/s 754 mmHg 85%
    19:00 +12°C° 0 mm 2 m/s 755 mmHg 89%
    20:00 +10°C° 0 mm 2 m/s 755 mmHg 91%
    21:00 +10°C° 0 mm 2 m/s 755 mmHg 92%
    22:00 +10°C° 0 mm 2 m/s 755 mmHg 94%
    23:00 +9°C° 0 mm 2 m/s 755 mmHg 94%

    20 Octobre, Samedi

    Heure Température Précipitation Vent Pression Humidité
    00:00 +9°C° 0 mm 2 m/s 755 mmHg 95%
    01:00 +8°C° 0 mm 2 m/s 755 mmHg 95%
    02:00 +8°C° 0 mm 2 m/s 755 mmHg 95%
    03:00 +8°C° 0 mm 2 m/s 755 mmHg 95%
    04:00 +8°C° 0 mm 2 m/s 755 mmHg 94%
    05:00 +8°C° 0 mm 2 m/s 755 mmHg 94%
    06:00 +7°C° 0 mm 2 m/s 755 mmHg 93%
    07:00 +7°C° 0 mm 2 m/s 756 mmHg 92%
    08:00 +8°C° 0 mm 2 m/s 756 mmHg 86%
    09:00 +10°C° 0 mm 2 m/s 756 mmHg 80%
    10:00 +12°C° 0 mm 2 m/s 757 mmHg 74%
    11:00 +12°C° 0 mm 2 m/s 757 mmHg 70%
    12:00 +12°C° 0 mm 3 m/s 757 mmHg 66%
    13:00 +13°C° 0 mm 3 m/s 757 mmHg 61%
    14:00 +12°C° 0 mm 3 m/s 757 mmHg 63%
    15:00 +11°C° 0 mm 3 m/s 757 mmHg 64%
    16:00 +10°C° 0 mm 3 m/s 757 mmHg 65%
    17:00 +9°C° 0 mm 3 m/s 757 mmHg 69%
    18:00 +8°C° 0 mm 2 m/s 758 mmHg 73%
    19:00 +7°C° 0 mm 2 m/s 758 mmHg 78%
    20:00 +6°C° 0 mm 2 m/s 758 mmHg 81%
    21:00 +6°C° 0 mm 2 m/s 758 mmHg 84%
    22:00 +6°C° 0 mm 2 m/s 759 mmHg 88%
    23:00 +5°C° 0 mm 2 m/s 759 mmHg 89%
    Voir plus